Regional Weather Roundup
Issued by NWS

Home | Current Version | Previous Version | Text Only | Print | Product List | Glossary Off
Versions: 1 2 3 4 5 6 7 8 9 10 11 12 13 14 15 16 17 18 19 20 21 22 23 24 25 26 27 28 29 30 31 32 33 34 35 36 37 38 39 40 41 42 43 44 45 46 47 48 49 50

000
ASUS43 KDTX 112301
RWRMI
MICHIGAN HOURLY REGIONAL WEATHER ROUNDUP
NATIONAL WEATHER SERVICE DETROIT/PONTIAC MI
600 PM EST THU FEB 11 2016

NOTE: "FAIR" INDICATES FEW OR NO CLOUDS BELOW 12,000 FEET WITH NO
SIGNIFICANT WEATHER AND/OR OBSTRUCTION TO VISIBILITY.

MIZ047>049-052>055-059>063-066>070-074>076-081>083-120000-
SOUTHEAST LOWER MICHIGAN

CITY           SKY/WX    TMP DP  RH WIND       PRES   REMARKS
ADRIAN         MOCLDY    19   7  59 W7        30.24S WCI  10
ALMA           MOCLDY    20   5  52 SW6       30.20F WCI  12
ANN ARBOR      CLEAR     19   1  45 NW5       30.22S WCI  12
BAD AXE        CLOUDY    12   3  66 S5        30.19F WCI   4
CARO           CLOUDY    16   5  62 CALM      30.19F
DETROIT CITY   CLEAR     19   1  45 VRB6      30.23S WCI  11
DETROIT        PTCLDY    19   2  47 W7        30.24S WCI  10
FLINT          PTCLDY    19   2  47 SW5       30.21S WCI  12
GROSSE ILE     CLEAR     19   1  45 W6        30.23S WCI  11
HILLSDALE      CLOUDY    19   5  54 W10       30.20S WCI   7
HOWELL         PTCLDY    17   2  51 W5        30.20S WCI  10

CITY           SKY/WX    TMP DP  RH WIND       PRES   REMARKS
JACKSON        MOCLDY    19   5  54 W8        30.21R WCI   9
LAMBERTVILLE   PTCLDY    20   8  59 W3        30.25S
LANSING        CLOUDY    20   4  50 W9        30.21S WCI   9
LAPEER         FAIR      15   3  58 CALM      30.20S
MASON          CLOUDY    20   5  52 CALM      30.21S
MONROE         CLEAR     19   3  50 W3        30.24R
MT. CLEMENS    PTCLDY    17   1  49 NW6       30.22R WCI   9
PONTIAC        PTCLDY    16   3  56 NW5       30.19S WCI   9
PORT HOPE        N/A     13   3  64 S5        30.17F WCI   5
PORT HURON     CLEAR     14   3  62 CALM      30.24R
TRI CITIES     CLOUDY    20   4  50 SW6       30.20S WCI  12
MIDLAND        MOCLDY    20   4  49 W8        30.19S WCI  10
TROY           CLEAR     20   3  47 NW7       30.24S WCI  11
SAGINAW HB     CLOUDY    19   9  63 SW3       30.20F
$$
MIZ043>046-050>051-056>058-064>065-071>073-077>080-120000-
SOUTHWEST LOWER MICHIGAN

CITY           SKY/WX    TMP DP  RH WIND       PRES   REMARKS
BATTLE CREEK   CLOUDY    19  11  70 W9        30.23R WCI   8
BENTON HARBOR  CLOUDY    20   8  60 W8        30.28R WCI  10
BIG RAPIDS     PTCLDY    17   4  56 W8        30.17S WCI   7
COLDWATER      CLOUDY    19   8  64 W3        30.23R
FREMONT        FAIR      16   4  59 W8        30.22S WCI   6
HOLLAND        CLOUDY    19   8  62 W12       30.26R WCI   7
GRAND RAPIDS   MOCLDY    20   8  60 W12       30.22S WCI   8
IONIA          CLOUDY    20   5  51 W14       30.20S WCI   7
KALAMAZOO      CLEAR     18   8  65 W5        30.24R WCI  11
LUDINGTON      MOCLDY    18   8  66 W6        30.22S WCI   9
MARSHALL       CLOUDY    19   7  58 W9        30.22R WCI   9
MOUNT PLEASANT PTCLDY    20   4  49 W7        30.18F WCI  11
MUSKEGON       MOCLDY    18   7  62 W7        30.25S WCI   9
SOUTH HAVEN    CLOUDY    19   9  63 W6        30.27R WCI  11
$$
MIZ016>042-120000-
NORTHERN LOWER MICHIGAN

CITY           SKY/WX    TMP DP  RH WIND       PRES   REMARKS
ALPENA         CLOUDY    16   2  54 W5        30.13F WCI   9
BEAVER ISLAND  CLOUDY    17   6  61 W8        30.14S WCI   7
BELLAIRE       FLURRIES  18   9  66 SW5       30.17S WCI  11
CADILLAC       PTCLDY    14   3  62 W8        30.12S WCI   3
CHARLEVOIX     CLOUDY    18   8  63 W15       30.17S WCI   4
FRANKFORT      CLOUDY    18   8  62 W6        30.18F WCI  10
GAYLORD        LGT SNOW  15   8  73 W10       30.08  WCI   2
GRAYLING       CLOUDY    15   4  63 W6        30.13S WCI   6
HARBOR SPRINGS FLURRIES  17   6  61 W10G16    30.13S WCI   5
HOUGHTON LAKE  MOCLDY    16   5  62 W13       30.13F WCI   2
MANISTEE       MOCLDY    18   7  62 W8        30.20F WCI   7
OSCODA         CLOUDY    17   5  59 W10       30.15F WCI   4
PELLSTON       CLOUDY    16   4  59 NW16G22   30.12F WCI   1
ROGERS CITY    CLOUDY    15   6  67 W6        30.13S WCI   7
TRAVERSE CITY  FLURRIES  18   5  57 W8        30.17S WCI   8
$$
MIZ007>008-015-120000-
EASTERN UPPER MICHIGAN

CITY           SKY/WX    TMP DP  RH WIND       PRES   REMARKS
KINROSS        PTCLDY    14   9  79 W10       30.06S WCI   1
MACKINAC ISLAN CLOUDY    16   5  61 W16G24    30.10S WCI   1
NEWBERRY       CLOUDY    13   5  70 W10       30.07F WCI   0
S. S. MARIE    LGT SNOW  16   8  71 W16G24    30.04F WCI   1
$$
MIZ004>006-011>014-085-120000-
CENTRAL UPPER MICHIGAN

CITY           SKY/WX    TMP DP  RH WIND       PRES   REMARKS
MANISTIQUE     CLOUDY    15   3  59 W3        30.13S
ESCANABA       CLEAR     18   1  49 W3        30.15S
MENOMINEE      CLEAR     18   1  49 SW8       30.16S WCI   7
SAWYER-GWINN   PTCLDY    12   3  67 W6        30.07F WCI   3
$$
MIZ001>003-009>011-084-120000-
WESTERN UPPER MICHIGAN

CITY           SKY/WX    TMP DP  RH WIND       PRES   REMARKS
IRON MOUNTAIN  CLOUDY    18  -1  43 W6        30.08F WCI  10
HOUGHTON       FLURRIES  13   6  74 W12       30.05S WCI  -1
COPPER HARBOR    N/A     16   9  74 VRB6      30.05F WCI   7
IRONWOOD       CLOUDY    12  -2  52 W8        30.08S WCI   1
$$

ABBREVIATIONS USED IN REMARKS
   TC - TEMPERATURE IN CELSIUS
  WCI - WIND CHILL INDEX
   HX - HEAT INDEX
  VSB - VISIBILITY




USA.gov is the U.S. government's official web portal to all federal, state and local government web resources and services.